Location: Detroit
(42.3310°N, 83.0460°W)
Time: 12:44:55
(UTC-05:00)

ISS - Pass Details

Date: 28 November 2021
Orbit: 413 x 422 km, 51.6° (Epoch: 19 January)

Event Time Altitude Azimuth Distance (km) Brightness Sun altitude
Rises 17:55:44 0° 288° (WNW) 2,382 1.0 -9.9°
Reaches altitude 10° 17:58:21 10° 309° (NW) 1,515 -0.5 -10.4°
Maximum altitude 18:00:44 18° 353° (N) 1,135 -1.7 -10.8°
Enters shadow 18:02:43 12° 33° (NNE) 1,407 -1.6 -11.2°
